Myrtle Beach, SC

5:25 AM EST on February 12, 2016 (GMT -0500)
Myrtle Beach International

Weather History for KMYR - January, 2014

Change the Weather History Date:

Saturday, January 4, 2014

  Actual Average Record
Temperature  
Mean Temperature 37 °F -  
Max Temperature 46 °F 55 °F 78 °F (2015)
Min Temperature 28 °F 35 °F 16 °F (2008)
Degree Days  
Heating Degree Days 28    
Moisture  
Dew Point 23 °F    
Average Humidity 63    
Maximum Humidity 87    
Minimum Humidity 48    
Precipitation  
Precipitation 0.00 in - - ()
Sea Level Pressure  
Sea Level Pressure 30.41 in    
Wind  
Wind Speed 10 mph (NNE)    
Max Wind Speed 14 mph    
Max Gust Speed 17 mph    
Visibility 10 miles    
Events      
Averages and records for this station are not official NWS values.
T = Trace of Precipitation, MM = Missing Value Source: NWS Daily Summary

Daily Weather History Graph

Daily Weather History Graph

Search for Another Location

Airport or City:

Trip Planner

Search our weather history database for the weather conditions in past years. The results will help you decide how hot, cold, wet, or windy it might be!

Date:

Astronomy

Jan. 04, 2014 Rise Set
Actual Time 7:20 AM EST 5:20 PM EST
Civil Twilight 6:53 AM EST 5:48 PM EST
Nautical Twilight 6:22 AM EST 6:19 PM EST
Astronomical Twilight 5:52 AM EST 6:49 PM EST
Moon 9:36 AM EST (1/4) 9:25 PM EST (1/4)
Length of Visible Light 10h 54m
Length of Day
9h 59m
Waxing Crescent, 15% of the Moon is Illuminated
Jan 4
Waxing Crescent
Jan 7
First Quarter
Jan 15
Full
Jan 24
Last Quarter
Jan 30
New

Hourly Weather History & Observations

Time (EST) Temp. Windchill Dew Point Humidity Pressure Visibility Wind Dir Wind Speed Gust Speed Precip Events Conditions
12:15 AM 30.2 °F 21.9 °F 17.6 °F 60% 30.47 in 10.0 mi North 9.2 mph - N/A   Clear
12:35 AM 30.2 °F 21.3 °F 17.6 °F 60% 30.46 in 10.0 mi North 10.4 mph - N/A   Clear
12:55 AM 30.2 °F 21.3 °F 17.6 °F 60% 30.46 in 10.0 mi NNE 10.4 mph - N/A   Clear
1:15 AM 28.4 °F 19.7 °F 17.6 °F 64% 30.46 in 10.0 mi NNE 9.2 mph - N/A   Clear
1:35 AM 28.4 °F 19.1 °F 15.8 °F 59% 30.47 in 10.0 mi NNE 10.4 mph - N/A   Clear
1:55 AM 28.4 °F 19.1 °F 15.8 °F 59% 30.46 in 10.0 mi North 10.4 mph - N/A   Clear
2:15 AM 28.4 °F 19.7 °F 15.8 °F 59% 30.46 in 10.0 mi North 9.2 mph - N/A   Clear
2:35 AM 28.4 °F 19.1 °F 15.8 °F 59% 30.47 in 10.0 mi North 10.4 mph - N/A   Mostly Cloudy
2:55 AM 28.4 °F 18.0 °F 15.8 °F 59% 30.46 in 10.0 mi North 12.7 mph - N/A   Overcast
3:15 AM 28.4 °F 18.5 °F 15.8 °F 59% 30.46 in 10.0 mi North 11.5 mph - N/A   Mostly Cloudy
3:35 AM 28.4 °F 18.5 °F 15.8 °F 59% 30.47 in 10.0 mi North 11.5 mph - N/A   Mostly Cloudy
3:55 AM 28.4 °F 17.5 °F 15.8 °F 59% 30.46 in 10.0 mi North 13.8 mph - N/A   Mostly Cloudy
4:15 AM 28.4 °F 18.5 °F 15.8 °F 59% 30.45 in 10.0 mi North 11.5 mph - N/A   Partly Cloudy
4:35 AM 28.4 °F 18.0 °F 15.8 °F 59% 30.45 in 10.0 mi North 12.7 mph - N/A   Clear
4:55 AM 28.4 °F 17.5 °F 15.8 °F 59% 30.45 in 10.0 mi North 13.8 mph - N/A   Scattered Clouds
5:15 AM 28.4 °F 18.0 °F 15.8 °F 59% 30.45 in 10.0 mi North 12.7 mph - N/A   Partly Cloudy
5:35 AM 28.4 °F 19.1 °F 15.8 °F 59% 30.46 in 10.0 mi North 10.4 mph 16.1 mph N/A   Clear
5:45 AM 28.4 °F 18.5 °F 14.0 °F 55% 30.45 in 10.0 mi NNE 11.5 mph 17.3 mph N/A   Scattered Clouds
6:45 AM 28.4 °F 21.2 °F 14.0 °F 55% 30.44 in 10.0 mi NE 6.9 mph 15.0 mph N/A   Scattered Clouds
7:03 AM 28.4 °F 19.1 °F 14.0 °F 55% 30.44 in 10.0 mi NE 10.4 mph 17.3 mph N/A   Mostly Cloudy
7:20 AM 28.4 °F 18.5 °F 12.2 °F 51% 30.43 in 10.0 mi NNE 11.5 mph - N/A   Scattered Clouds
7:45 AM 28.4 °F 19.7 °F 12.2 °F 51% 30.45 in 10.0 mi North 9.2 mph - N/A   Mostly Cloudy
8:45 AM 30.2 °F 19.8 °F 14.0 °F 51% 30.46 in 10.0 mi NNE 13.8 mph - N/A   Mostly Cloudy
9:15 AM 32.0 °F 23.0 °F 15.8 °F 51% 30.47 in 10.0 mi North 11.5 mph - N/A   Overcast
9:45 AM 33.8 °F 25.3 °F 17.6 °F 52% 30.48 in 10.0 mi North 11.5 mph - N/A   Overcast
10:45 AM 37.4 °F 29.3 °F 19.4 °F 48% 30.46 in 10.0 mi North 12.7 mph - N/A   Overcast
11:45 AM 39.2 °F 31.6 °F 26.6 °F 61% 30.41 in 10.0 mi North 12.7 mph - N/A   Overcast
2:50 PM 46.4 °F 41.1 °F 37.4 °F 71% 30.34 in 10.0 mi NNE 11.5 mph - N/A   Overcast
3:45 PM 46.4 °F 41.9 °F 37.4 °F 71% 30.33 in 10.0 mi NNE 9.2 mph - N/A   Overcast
4:53 PM 46.4 °F 42.9 °F 39.2 °F 76% 30.33 in 10.0 mi NNE 6.9 mph - N/A   Overcast
5:45 PM 44.6 °F 39.7 °F 33.8 °F 66% 30.32 in 10.0 mi North 9.2 mph - N/A   Overcast
6:45 PM 44.6 °F 39.7 °F 33.8 °F 66% 30.33 in 10.0 mi North 9.2 mph - N/A   Overcast
7:45 PM 44.6 °F 39.2 °F 35.6 °F 71% 30.32 in 10.0 mi NNE 10.4 mph - N/A   Overcast
8:45 PM 44.6 °F 39.2 °F 37.4 °F 76% 30.30 in 10.0 mi NNE 10.4 mph - N/A   Overcast
9:21 PM 44.6 °F 40.7 °F 37.4 °F 76% 30.30 in 10.0 mi NNE 6.9 mph - N/A   Overcast
9:53 PM 44.6 °F 40.7 °F 39.2 °F 81% 30.29 in 10.0 mi North 6.9 mph - N/A   Mostly Cloudy
10:55 PM 44.6 °F 40.2 °F 37.4 °F 76% 30.27 in 10.0 mi North 8.1 mph - N/A   Overcast
11:15 PM 42.8 °F 38.6 °F 39.2 °F 87% 30.26 in 10.0 mi North 6.9 mph - N/A   Mostly Cloudy
11:35 PM 44.6 °F 41.4 °F 39.2 °F 81% 30.26 in 10.0 mi North 5.8 mph - N/A   Overcast
11:55 PM 44.6 °F 40.7 °F 37.4 °F 76% 30.25 in 10.0 mi North 6.9 mph - N/A   Overcast